Date,TemperatureHighF,TemperatureAvgF,TemperatureLowF,DewpointHighF,DewpointAvgF,DewpointLowF,HumidityHigh,HumidityAvg,HumidityLow,PressureMaxIn,PressureMinIn,WindSpeedMaxMPH,WindSpeedAvgMPH,GustSpeedMaxMPH,PrecipitationSumIn
2014-1-1,27.7,21.4,14.5,13.0,8.2,5.0,72,58,43,30.38,30.18,9,1,13,0.00
2014-1-2,21.9,12.3,0.7,15.0,8.5,-3.0,87,85,63,30.35,29.85,9,1,10,0.00
2014-1-3,13.6,5.2,-0.8,8.0,-1.6,-10.0,87,74,53,30.40,29.71,11,2,15,0.00
2014-1-4,26.7,13.1,-4.0,18.0,1.8,-10.0,83,63,31,30.50,30.26,7,1,13,0.00
2014-1-5,39.8,29.7,13.2,35.0,21.5,9.0,93,73,48,30.31,29.91,6,0,8,0.17
2014-1-6,57.8,43.3,27.2,56.0,40.0,14.0,97,88,59,29.91,29.27,12,2,15,0.28
2014-1-7,26.8,13.2,7.3,14.0,-4.4,-12.0,64,46,34,30.22,29.50,11,4,22,0.00
2014-1-8,20.8,13.0,5.4,4.0,-1.6,-8.0,64,53,42,30.46,30.22,10,2,15,0.00
2014-1-9,30.2,19.5,13.2,11.0,7.1,4.0,84,60,38,30.63,30.41,6,1,10,0.00
2014-1-10,36.1,26.5,11.3,34.0,23.2,8.0,92,87,75,30.59,30.26,3,0,6,0.01
2014-1-11,59.7,48.4,34.9,58.0,46.9,33.0,97,94,91,30.26,29.27,7,1,14,0.60
2014-1-12,53.8,43.2,35.5,52.0,32.5,25.0,93,67,54,29.95,29.27,12,3,16,0.04
2014-1-13,54.1,40.5,28.3,43.0,30.4,23.0,87,69,41,30.11,29.89,7,1,11,0.00
2014-1-14,48.7,46.8,42.5,47.0,44.4,41.0,95,91,85,29.88,29.60,3,0,9,0.73
2014-1-15,48.1,39.2,31.2,40.0,35.4,30.0,96,87,67,30.01,29.75,3,0,10,0.00
2014-1-16,39.7,35.7,30.8,37.0,34.1,30.0,96,94,88,29.92,29.82,1,0,4,0.01
2014-1-17,45.8,37.7,29.2,36.0,29.2,22.0,94,74,39,29.97,29.89,6,1,10,0.00
2014-1-18,36.9,32.7,29.3,35.0,30.4,25.0,95,91,84,29.91,29.60,3,0,7,0.26
2014-1-19,34.2,30.9,28.3,31.0,26.0,22.0,95,82,67,29.71,29.53,10,2,18,0.01
2014-1-20,40.7,33.5,24.6,28.0,23.3,10.0,77,67,50,29.85,29.49,11,2,18,0.15
2014-1-21,24.1,14.6,10.4,10.0,3.3,-3.0,87,63,43,30.05,29.86,6,-10,11,0.00
2014-1-22,17.9,10.7,6.3,6.0,-1.7,-6.0,84,59,41,29.89,29.64,8,2,17,0.00
2014-1-23,21.7,11.1,2.4,0.0,-4.1,-7.0,66,52,35,30.14,29.89,7,1,12,0.00
2014-1-24,18.2,11.3,5.0,-1.0,-4.1,-7.0,62,51,33,30.26,30.04,11,2,14,0.00
2014-1-25,37.3,25.7,13.1,26.0,16.0,0.0,84,67,54,30.03,29.33,9,2,21,0.01
2014-1-26,24.5,18.8,13.8,17.0,3.5,-6.0,76,53,36,29.88,29.34,11,2,17,0.00
2014-1-27,44.6,28.9,19.3,37.0,17.2,2.0,89,64,34,29.98,29.52,11,2,20,0.04
2014-1-28,19.2,15.8,10.9,2.0,-6.0,-12.0,48,38,29,30.29,29.99,8,2,15,0.00
2014-1-29,25.8,18.7,14.1,6.0,-1.8,-8.0,68,43,23,30.21,29.96,9,1,14,0.00
2014-1-30,31.6,20.3,11.0,11.0,3.7,-4.0,72,50,33,30.43,30.18,6,1,11,0.00
2014-1-31,41.2,32.2,19.1,23.0,17.2,10.0,83,57,34,30.19,30.00,9,1,11,0.00
2014-2-1,47.4,37.2,28.1,29.0,22.7,20.0,79,57,39,30.33,30.02,6,0,9,0.00
2014-2-2,53.6,40.4,30.1,41.0,34.2,27.0,92,79,53,30.04,29.85,3,0,9,0.04
2014-2-3,38.5,31.7,22.8,33.0,26.9,21.0,92,83,62,30.28,30.03,3,0,9,0.00
2014-2-4,34.5,26.3,15.5,24.0,19.9,13.0,92,78,56,30.45,30.27,3,0,5,0.10
2014-2-5,32.5,27.9,23.2,31.0,25.5,20.0,94,90,84,30.29,29.62,1,0,6,0.00
2014-2-6,29.4,21.1,14.6,20.0,13.9,10.0,89,75,46,30.25,29.95,0,0,0,0.01
2014-2-7,30.4,21.0,10.0,14.0,11.0,7.0,87,67,47,30.25,30.14,0,0,1,0.00
2014-2-8,28.9,21.5,12.4,12.0,6.4,2.0,81,54,36,30.29,30.11,4,0,5,0.00
2014-2-9,30.4,25.3,19.6,23.0,16.1,7.0,89,69,50,30.16,29.95,4,0,7,0.00
2014-2-10,28.9,21.3,11.5,21.0,12.2,6.0,91,70,46,30.20,29.89,10,1,13,0.00
2014-2-11,26.0,15.7,5.6,8.0,3.9,1.0,88,62,38,30.43,30.20,5,1,11,0.00
2014-2-12,28.8,15.8,2.2,8.0,0.0,-5.0,74,53,27,30.56,30.41,7,0,9,0.00
2014-2-13,33.4,28.5,16.4,32.0,26.1,9.0,95,90,73,30.38,29.01,6,1,13,0.00
2014-2-14,36.5,32.7,28.6,32.0,26.8,22.0,96,79,65,29.72,28.83,17,3,22,0.00
2014-2-15,37.0,29.6,24.4,29.0,25.5,21.0,94,85,60,29.85,29.46,9,1,13,0.03
2014-2-16,32.6,26.4,20.4,27.0,13.6,9.0,94,60,40,29.95,29.46,9,3,19,0.00
2014-2-17,29.6,19.8,10.1,9.0,-0.2,-4.0,72,44,25,30.36,29.96,13,2,14,0.00
2014-2-18,32.4,20.5,6.7,31.0,15.5,1.0,93,81,63,30.36,29.88,2,0,6,0.00
2014-2-19,35.4,28.1,16.6,31.0,24.9,14.0,94,88,73,30.09,29.71,3,0,9,0.07
2014-2-20,49.4,39.1,31.0,33.0,29.1,22.0,94,71,36,30.20,29.83,8,1,13,0.72
2014-2-21,39.2,36.9,33.6,38.0,35.5,33.0,96,95,92,30.15,29.66,8,0,8,0.30
2014-2-22,53.2,41.1,27.7,37.0,27.9,23.0,97,65,32,29.96,29.83,11,1,19,0.01
2014-2-23,51.6,42.2,29.0,31.0,27.2,24.0,86,58,37,29.98,29.75,9,0,9,0.00
2014-2-24,40.7,32.1,22.3,30.0,13.3,6.0,82,47,36,29.94,29.72,9,3,17,0.00
2014-2-25,27.8,22.6,18.1,9.0,7.3,5.0,64,52,40,29.98,29.86,10,2,14,0.00
2014-2-26,30.6,19.8,11.4,12.0,3.9,-7.0,74,52,29,29.93,29.75,9,1,14,0.00
2014-2-27,29.0,18.3,7.0,21.0,3.7,-5.0,81,54,30,29.90,29.57,16,2,16,0.00
2014-2-28,25.4,15.5,7.3,0.0,-6.4,-11.0,61,39,20,30.43,29.91,11,2,18,0.00
2014-3-1,36.2,23.0,5.4,23.0,9.3,-2.0,73,58,33,30.44,30.08,7,1,13,0.00
2014-3-2,39.8,34.1,29.9,25.0,21.1,16.0,67,59,49,30.07,29.94,3,0,8,0.00
2014-3-3,29.7,20.2,10.7,16.0,3.8,-2.0,61,50,38,30.29,29.98,10,2,13,0.00
2014-3-4,30.4,19.1,4.0,7.0,0.2,-4.0,75,47,27,30.38,30.24,4,0,7,0.00
2014-3-5,28.0,23.8,16.8,20.0,14.5,7.0,80,68,46,30.48,30.23,2,0,6,0.00
2014-3-6,31.6,19.1,8.4,7.0,-0.1,-8.0,72,46,21,30.63,30.49,4,1,10,0.00
2014-3-7,39.3,24.8,6.3,26.0,15.2,3.0,86,69,45,30.50,29.94,4,0,7,0.00
2014-3-8,55.9,38.6,22.1,28.0,24.6,20.0,91,61,32,29.94,29.67,6,1,12,0.00
2014-3-9,41.7,33.6,25.9,21.0,12.5,7.0,64,43,25,29.93,29.85,7,2,15,0.00
2014-3-10,44.6,35.7,28.4,29.0,22.8,12.0,85,61,45,29.88,29.63,4,0,10,0.00
2014-3-11,59.1,44.0,33.3,35.0,30.8,27.0,92,64,31,29.70,29.50,8,1,15,0.00
2014-3-12,52.4,41.1,37.3,39.0,34.4,29.0,94,78,50,29.71,29.01,7,0,9,0.43
2014-3-13,37.1,23.5,16.7,35.0,19.2,9.0,93,84,63,29.47,29.00,9,3,23,0.05
2014-9-26,70.9,55.6,51.5,59.0,51.3,50.0,94,79,65,29.99,0.00,0,0,1,0.00
2014-9-27,86.0,63.0,45.4,66.0,55.8,44.0,97,80,42,30.00,29.92,2,0,4,0.00
2014-9-28,84.4,66.0,49.3,68.0,59.4,48.0,98,82,50,29.97,29.78,5,0,9,0.00
2014-9-29,77.5,63.7,54.4,64.0,58.9,53.0,97,86,61,29.82,29.73,2,0,5,0.00